Вернуться в каталог

CZ-2C R/B

АктивенVLEO
NORAD 52794·ROCKET BODY·🇨🇳 China

Запущен Jun 2, 2022 с Xichang Satellite Launch Center

Loading…

Ближайшие Пролёты (ближайшие 24 часа)

TLE

СвежийSource: Space-Track

Эпоха: Sep 14, 2026, 10:26 UTC

1 52794U 22058K   26257.43531731  .00045777  00000-0  38913-3 0  9990
2 52794  50.1838  56.8810 0029962 284.6460  75.1195 15.68498607239624

Отслеживайте CZ-2C R/B в реальном времени с AllMySat

Download on the App Store